Natchitoches, LA

1:58 PM CST on February 13, 2016 (GMT -0600)
Natchitoches Regional

Weather History for KIER - October, 2012

Change the Weather History Date:

Tuesday, October 23, 2012

  Actual Average Record
Temperature  
Mean Temperature 70 °F -  
Max Temperature 85 °F 76 °F 94 °F (1939)
Min Temperature 55 °F 51 °F 30 °F (1952)
Cooling Degree Days 4    
Growing Degree Days 20 (Base 50)    
Moisture  
Dew Point 62 °F    
Average Humidity 83    
Maximum Humidity 100    
Minimum Humidity 47    
Precipitation  
Precipitation 0.00 in - - ()
Sea Level Pressure  
Sea Level Pressure 30.02 in    
Wind  
Wind Speed 2 mph (SSE)    
Max Wind Speed 8 mph    
Max Gust Speed -    
Visibility 7 miles    
Events Fog    
Averages and records for this station are not official NWS values.
T = Trace of Precipitation, MM = Missing Value Source: NWS Daily Summary

Daily Weather History Graph

Daily Weather History Graph

Search for Another Location

Airport or City:

Trip Planner

Search our weather history database for the weather conditions in past years. The results will help you decide how hot, cold, wet, or windy it might be!

Date:

Astronomy

Oct. 23, 2012 Rise Set
Actual Time 7:21 AM CDT 6:30 PM CDT
Civil Twilight 6:57 AM CDT 6:55 PM CDT
Nautical Twilight 6:28 AM CDT 7:24 PM CDT
Astronomical Twilight 6:00 AM CDT 7:52 PM CDT
Moon 2:56 PM CDT (10/23) 1:35 AM CDT (10/23)
Length of Visible Light 11h 58m
Length of Day
11h 08m
Waxing Gibbous, 67% of the Moon is Illuminated
Oct 23
Waxing Gibbous
Oct 29
Full
Nov 6
Last Quarter
Nov 13
New
Nov 20
First Quarter

Hourly Weather History & Observations

Time (CDT) Temp. Heat Index Dew Point Humidity Pressure Visibility Wind Dir Wind Speed Gust Speed Precip Events Conditions
12:15 AM 61.9 °F - 59.2 °F 91% 30.03 in 10.0 mi South 3.5 mph - N/A   Clear
12:35 AM 62.2 °F - 59.4 °F 90% 30.02 in 10.0 mi South 3.5 mph - N/A   Clear
12:55 AM 61.7 °F - 59.7 °F 93% 30.02 in 10.0 mi Calm Calm - N/A   Clear
1:15 AM 59.9 °F - 59.2 °F 97% 30.02 in 10.0 mi ESE 3.5 mph - N/A   Clear
1:35 AM 60.4 °F - 59.4 °F 96% 30.02 in 10.0 mi SSE 5.8 mph - N/A   Clear
1:55 AM 61.2 °F - 59.5 °F 94% 30.02 in 10.0 mi SSE 3.5 mph - N/A   Clear
2:15 AM 59.9 °F - 59.2 °F 97% 30.02 in 10.0 mi South 3.5 mph - N/A   Clear
2:55 AM 59.0 °F - 58.3 °F 97% 30.01 in 10.0 mi Calm Calm - N/A   Clear
3:15 AM 58.1 °F - 57.6 °F 98% 30.01 in 10.0 mi Calm Calm - N/A   Clear
3:35 AM 58.3 °F - 58.1 °F 99% 30.01 in 7.0 mi Calm Calm - N/A   Clear
3:55 AM 58.3 °F - 58.3 °F 100% 30.01 in 4.0 mi Calm Calm - N/A   Clear
4:15 AM 58.1 °F - 58.1 °F 100% 30.01 in 7.0 mi Calm Calm - N/A   Clear
4:35 AM 58.3 °F - 58.3 °F 100% 30.02 in 1.2 mi Calm Calm - N/A   Mist
4:55 AM 56.8 °F - 56.8 °F 100% 30.02 in 7.0 mi Calm Calm - N/A   Clear
5:15 AM 55.8 °F - 55.8 °F 100% 30.03 in 0.5 mi Calm Calm - N/A Fog Fog
5:35 AM 56.7 °F - 56.7 °F 100% 30.03 in 0.5 mi Calm Calm - N/A Fog Fog
5:55 AM 55.9 °F - 55.9 °F 100% 30.04 in 3.0 mi Calm Calm - N/A   Mostly Cloudy
6:35 AM 56.7 °F - 56.7 °F 100% 30.05 in 0.2 mi Calm Calm - N/A Fog Fog
6:55 AM 58.5 °F - 58.5 °F 100% 30.05 in 0.2 mi Calm Calm - N/A Fog Fog
7:15 AM 58.3 °F - 58.3 °F 100% 30.05 in 0.2 mi Calm Calm - N/A Fog Fog
7:35 AM 59.0 °F - 59.0 °F 100% 30.06 in 0.2 mi Calm Calm - N/A Fog Fog
7:55 AM 58.6 °F - 58.6 °F 100% 30.06 in 0.2 mi Calm Calm - N/A Fog Fog
8:15 AM 59.2 °F - 59.2 °F 100% 30.06 in 0.2 mi Calm Calm - N/A Fog Fog
8:35 AM 60.1 °F - 60.1 °F 100% 30.07 in 0.2 mi SSE 3.5 mph - N/A Fog Fog
8:55 AM 61.0 °F - 61.0 °F 100% 30.07 in 0.2 mi SE 4.6 mph - N/A Fog Fog
9:15 AM 61.7 °F - 61.7 °F 100% 30.07 in 0.2 mi SSE 4.6 mph - N/A Fog Fog
9:35 AM 62.8 °F - 62.8 °F 100% 30.08 in 0.2 mi SE 5.8 mph - N/A Fog Fog
9:55 AM 63.5 °F - 63.5 °F 100% 30.08 in 0.5 mi SSE 3.5 mph - N/A Fog Fog
10:15 AM 64.8 °F - 64.8 °F 100% 30.08 in 1.8 mi SE 6.9 mph - N/A   Overcast
10:55 AM 68.2 °F - 65.5 °F 91% 30.08 in 7.0 mi SSE 4.6 mph - N/A   Overcast
11:15 AM 70.2 °F - 65.7 °F 86% 30.07 in 10.0 mi South 6.9 mph - N/A   Mostly Cloudy
11:35 AM 72.3 °F - 66.0 °F 80% 30.07 in 10.0 mi SSE 5.8 mph - N/A   Scattered Clouds
11:55 AM 74.8 °F - 66.2 °F 74% 30.07 in 10.0 mi SSE 6.9 mph - N/A   Clear
12:15 PM 77.0 °F - 66.4 °F 70% 30.06 in 10.0 mi SSE 8.1 mph - N/A   Clear
12:35 PM 79.0 °F - 66.4 °F 65% 30.05 in 10.0 mi South 4.6 mph - N/A   Clear
12:55 PM 80.1 °F 82.2 °F 66.4 °F 63% 30.04 in 10.0 mi South 4.6 mph - N/A   Scattered Clouds
1:15 PM 81.3 °F 83.6 °F 66.6 °F 61% 30.03 in 10.0 mi Calm Calm - N/A   Mostly Cloudy
1:35 PM 82.0 °F 84.1 °F 65.8 °F 58% 30.02 in 10.0 mi ESE 6.9 mph - N/A   Mostly Cloudy
1:55 PM 82.9 °F 84.6 °F 64.8 °F 54% 30.01 in 10.0 mi Calm Calm - N/A   Scattered Clouds
2:15 PM 84.6 °F 85.4 °F 63.1 °F 48% 30.00 in 10.0 mi SW 3.5 mph - N/A   Scattered Clouds
2:35 PM 84.0 °F 84.7 °F 62.6 °F 48% 29.99 in 10.0 mi SSE 3.5 mph - N/A   Scattered Clouds
2:55 PM 84.2 °F 85.4 °F 63.5 °F 50% 29.99 in 10.0 mi Calm Calm - N/A   Scattered Clouds
3:15 PM 83.5 °F 84.3 °F 62.4 °F 49% 29.98 in 10.0 mi SSE 4.6 mph - N/A   Scattered Clouds
3:35 PM 84.0 °F 84.9 °F 63.1 °F 49% 29.98 in 10.0 mi South 5.8 mph - N/A   Clear
3:55 PM 84.7 °F 85.6 °F 63.1 °F 48% 29.98 in 10.0 mi ESE 4.6 mph - N/A   Scattered Clouds
4:15 PM 84.4 °F 85.4 °F 63.1 °F 49% 29.98 in 10.0 mi SE 4.6 mph - N/A   Scattered Clouds
4:35 PM 84.2 °F 84.8 °F 62.2 °F 47% 29.97 in 10.0 mi SE 8.1 mph - N/A   Scattered Clouds
4:55 PM 83.3 °F 84.1 °F 62.1 °F 49% 29.97 in 10.0 mi SSE 4.6 mph - N/A   Clear
5:15 PM 82.6 °F 83.2 °F 61.7 °F 49% 29.97 in 10.0 mi SSE 3.5 mph - N/A   Clear
5:35 PM 82.8 °F 83.4 °F 61.7 °F 49% 29.97 in 10.0 mi South 5.8 mph - N/A   Scattered Clouds
5:55 PM 80.8 °F 81.9 °F 62.2 °F 53% 29.97 in 10.0 mi SSE 3.5 mph - N/A   Clear
6:15 PM 78.1 °F - 62.2 °F 58% 29.97 in 10.0 mi Calm Calm - N/A   Clear
6:35 PM 72.1 °F - 64.0 °F 76% 29.98 in 10.0 mi Calm Calm - N/A   Clear
6:55 PM 70.0 °F - 64.8 °F 83% 29.98 in 10.0 mi Calm Calm - N/A   Clear
7:15 PM 68.2 °F - 64.2 °F 87% 29.98 in 10.0 mi Calm Calm - N/A   Clear
7:35 PM 67.3 °F - 63.9 °F 89% 29.99 in 10.0 mi Calm Calm - N/A   Clear
7:55 PM 66.6 °F - 63.5 °F 90% 29.99 in 10.0 mi Calm Calm - N/A   Clear
8:15 PM 65.8 °F - 63.9 °F 93% 29.99 in 10.0 mi Calm Calm - N/A   Clear
8:55 PM 64.8 °F - 63.7 °F 96% 30.00 in 10.0 mi Calm Calm - N/A   Clear
9:15 PM 64.4 °F - 63.5 °F 97% 30.01 in 10.0 mi Calm Calm - N/A   Clear
9:35 PM 63.9 °F - 63.1 °F 97% 30.01 in 10.0 mi Calm Calm - N/A   Clear
9:55 PM 63.5 °F - 63.0 °F 98% 30.01 in 10.0 mi Calm Calm - N/A   Clear
10:15 PM 63.5 °F - 62.6 °F 97% 30.01 in 10.0 mi Calm Calm - N/A   Scattered Clouds
10:35 PM 63.5 °F - 63.0 °F 98% 30.01 in 10.0 mi Calm Calm - N/A   Scattered Clouds
11:35 PM 62.6 °F - 61.9 °F 97% 30.01 in 10.0 mi Calm Calm - N/A   Scattered Clouds
11:55 PM 62.6 °F - 62.2 °F 99% 30.01 in 10.0 mi Calm Calm - N/A   Clear